QPF
0.00 0.00 0.00 0.00 0.00 0.00 0.00 0.00 0.00 0.00 0.00 0.00 0.00 0.00 0.00 0.00 0.00 0.00 0.00 0.00 0.00 0.00 0.00 0.01 0.02 0.02 0.01 0.02 0.03 0.04 0.05 0.04 0.04 0.05 0.07 0.07 0.08 0.09 0.12 0.13 0.12 0.14 0.16 0.15
0.00 0.00 0.00 0.00 0.00 0.00 0.00 0.00 0.00 0.00 0.00 0.00 0.00 0.00 0.00 0.00 0.00 0.01 0.01 0.01 0.00 0.01 0.01 0.01 0.02 0.02 0.01 0.01 0.02 0.03 0.03 0.03 0.04 0.05 0.05 0.05 0.04 0.05 0.07 0.10 0.12 0.14 0.17 0.16
0.00 0.00 0.00 0.00 0.00 0.00 0.00 0.00 0.00 0.00 0.00 0.00 0.00 0.00 0.00 0.00 0.00 0.01 0.01 0.00 0.00 0.01 0.01 0.01 0.01 0.01 0.01 0.02 0.03 0.04 0.05 0.05 0.04 0.04 0.04 0.05 0.05 0.05 0.06 0.07 0.08 0.10 0.13 0.12
0.00 0.00 0.01 0.00 0.00 0.00 0.00 0.00 0.00 0.00 0.00 0.00 0.00 0.00 0.00 0.00 0.00 0.01 0.00 0.00 0.00 0.00 0.00 0.01 0.01 0.01 0.01 0.01 0.03 0.04 0.05 0.05 0.05 0.05 0.05 0.06 0.07 0.07 0.07 0.07 0.07 0.09 0.10 0.11
0.00 0.00 0.00 0.00 0.00 0.00 0.00 0.00 0.00 0.00 0.00 0.00 0.00 0.01 0.01 0.00 0.00 0.00 0.00 0.00 0.01 0.01 0.01 0.01 0.01 0.01 0.01 0.02 0.03 0.04 0.04 0.05 0.06 0.06 0.05 0.04 0.05 0.07 0.07 0.07 0.07 0.07 0.08 0.11
0.00 0.00 0.00 0.00 0.00 0.00 0.00 0.01 0.00 0.00 0.00 0.00 0.00 0.01 0.00 0.01 0.00 0.00 0.00 0.00 0.01 0.01 0.01 0.01 0.01 0.01 0.01 0.02 0.02 0.04 0.06 0.06 0.06 0.06 0.05 0.04 0.05 0.07 0.08 0.09 0.09 0.08 0.07 0.07
0.01 0.01 0.00 0.00 0.01 0.01 0.01 0.01 0.00 0.00 0.00 0.00 0.00 0.00 0.00 0.00 0.00 0.00 0.00 0.00 0.00 0.00 0.00 0.01 0.02 0.01 0.02 0.02 0.03 0.04 0.06 0.08 0.09 0.08 0.07 0.07 0.08 0.08 0.09 0.10 0.09 0.07 0.07 0.06
0.01 0.01 0.01 0.00 0.01 0.01 0.01 0.01 0.00 0.00 0.00 0.00 0.00 0.00 0.00 0.00 0.00 0.00 0.00 0.00 0.01 0.01 0.01 0.02 0.01 0.01 0.01 0.02 0.03 0.03 0.04 0.07 0.12 0.12 0.10 0.08 0.08 0.09 0.09 0.08 0.07 0.06 0.05 0.04
0.01 0.01 0.01 0.00 0.01 0.00 0.01 0.01 0.01 0.01 0.00 0.01 0.01 0.00 0.00 0.00 0.00 0.00 0.00 0.01 0.01 0.02 0.03 0.03 0.02 0.02 0.01 0.02 0.02 0.03 0.03 0.05 0.08 0.13 0.13 0.11 0.09 0.07 0.06 0.06 0.05 0.05 0.04 0.03
0.01 0.01 0.00 0.00 0.01 0.00 0.01 0.01 0.01 0.01 0.00 0.01 0.01 0.01 0.00 0.01 0.01 0.00 0.01 0.01 0.02 0.03 0.04 0.04 0.04 0.03 0.02 0.02 0.02 0.01 0.02 0.03 0.04 0.05 0.07 0.08 0.08 0.06 0.06 0.06 0.05 0.06 0.06 0.04
0.04 0.03 0.01 0.01 0.00 0.00 0.00 0.00 0.00 0.00 0.01 0.01 0.01 0.01 0.01 0.01 0.01 0.01 0.01 0.02 0.02 0.04 0.05 0.06 0.05 0.03 0.03 0.03 0.02 0.01 0.01 0.02 0.02 0.03 0.03 0.03 0.04 0.04 0.04 0.03 0.03 0.05 0.05 0.05
0.04 0.03 0.02 0.01 0.01 0.00 0.00 0.01 0.01 0.01 0.01 0.02 0.02 0.01 0.01 0.01 0.02 0.03 0.02 0.03 0.03 0.04 0.05 0.06 0.05 0.04 0.04 0.03 0.03 0.02 0.03 0.03 0.04 0.04 0.04 0.03 0.03 0.03 0.04 0.04 0.05 0.06 0.06 0.05
0.03 0.03 0.02 0.01 0.01 0.01 0.01 0.01 0.01 0.02 0.02 0.01 0.01 0.01 0.01 0.01 0.02 0.03 0.05 0.05 0.04 0.03 0.04 0.06 0.06 0.06 0.06 0.06 0.05 0.06 0.07 0.06 0.05 0.04 0.04 0.04 0.04 0.04 0.04 0.04 0.03 0.03 0.04 0.04
0.02 0.02 0.01 0.01 0.03 0.03 0.01 0.01 0.02 0.02 0.02 0.01 0.01 0.01 0.01 0.02 0.02 0.02 0.03 0.06 0.06 0.05 0.04 0.05 0.05 0.05 0.06 0.07 0.08 0.08 0.08 0.07 0.05 0.04 0.03 0.03 0.03 0.02 0.02 0.02 0.02 0.03 0.02 0.02
0.03 0.02 0.03 0.04 0.05 0.06 0.02 0.01 0.02 0.03 0.02 0.02 0.02 0.01 0.01 0.02 0.02 0.01 0.02 0.04 0.05 0.06 0.06 0.06 0.06 0.06 0.05 0.06 0.06 0.06 0.05 0.05 0.04 0.03 0.02 0.01 0.01 0.01 0.01 0.01 0.00 0.01 0.01 0.01
0.03 0.03 0.05 0.06 0.06 0.07 0.05 0.03 0.03 0.04 0.04 0.03 0.02 0.02 0.02 0.02 0.04 0.03 0.03 0.03 0.03 0.06 0.07 0.07 0.07 0.08 0.06 0.05 0.04 0.04 0.04 0.05 0.04 0.03 0.03 0.02 0.02 0.01 0.01 0.01 0.00 0.00 0.00 0.01
0.03 0.04 0.06 0.06 0.07 0.07 0.06 0.05 0.04 0.05 0.05 0.04 0.03 0.03 0.03 0.04 0.06 0.06 0.03 0.03 0.03 0.04 0.05 0.06 0.07 0.07 0.07 0.06 0.04 0.04 0.04 0.04 0.03 0.03 0.03 0.03 0.02 0.01 0.00 0.00 0.01 0.01 0.01 0.01
0.04 0.04 0.04 0.05 0.06 0.06 0.06 0.06 0.04 0.04 0.03 0.03 0.03 0.03 0.03 0.04 0.05 0.05 0.04 0.03 0.03 0.04 0.04 0.06 0.06 0.06 0.06 0.05 0.05 0.05 0.05 0.05 0.04 0.03 0.03 0.02 0.01 0.00 0.00 0.01 0.01 0.01 0.00 0.00
0.05 0.04 0.04 0.04 0.05 0.05 0.05 0.04 0.03 0.03 0.02 0.01 0.01 0.02 0.02 0.03 0.03 0.04 0.04 0.03 0.02 0.02 0.03 0.04 0.05 0.05 0.05 0.05 0.04 0.03 0.04 0.04 0.03 0.02 0.01 0.01 0.00 0.00 0.00 0.00 0.00 0.00 0.00 0.00
0.06 0.05 0.05 0.05 0.05 0.05 0.04 0.02 0.02 0.01 0.01 0.01 0.01 0.01 0.01 0.02 0.03 0.04 0.04 0.03 0.01 0.01 0.01 0.02 0.02 0.02 0.03 0.03 0.03 0.02 0.02 0.02 0.02 0.01 0.00 0.00 0.00 0.00 0.00 0.00 0.00 0.00 0.00 0.00
0.06 0.04 0.04 0.05 0.05 0.04 0.02 0.01 0.01 0.01 0.01 0.01 0.01 0.01 0.01 0.01 0.02 0.03 0.04 0.03 0.02 0.01 0.01 0.01 0.01 0.01 0.01 0.01 0.01 0.01 0.01 0.00 0.00 0.00 0.00 0.00 0.00 0.00 0.00 0.00 0.00 0.00 0.00 0.00
0.05 0.04 0.04 0.04 0.05 0.04 0.02 0.01 0.01 0.01 0.01 0.01 0.01 0.01 0.01 0.01 0.01 0.02 0.03 0.03 0.03 0.01 0.01 0.00 0.00 0.00 0.00 0.00 0.00 0.00 0.00 0.00 0.00 0.00 0.00 0.00 0.00 0.00 0.00 0.00 0.00 0.00 0.00 0.00
0.05 0.04 0.04 0.04 0.05 0.04 0.03 0.02 0.02 0.01 0.01 0.01 0.01 0.01 0.01 0.01 0.01 0.01 0.01 0.02 0.03 0.02 0.01 0.00 0.00 0.00 0.00 0.00 0.00 0.00 0.00 0.00 0.00 0.00 0.00 0.00 0.00 0.00 0.00 0.00 0.00 0.00 0.00 0.00
0.05 0.03 0.04 0.05 0.05 0.04 0.03 0.03 0.03 0.03 0.02 0.01 0.01 0.02 0.02 0.01 0.01 0.00 0.00 0.01 0.01 0.01 0.01 0.01 0.00 0.00 0.00 0.00 0.00 0.00 0.00 0.00 0.00 0.00 0.00 0.00 0.00 0.00 0.00 0.00 0.00 0.00 0.00 0.00
0.05 0.05 0.06 0.06 0.06 0.04 0.03 0.03 0.04 0.04 0.03 0.01 0.01 0.01 0.02 0.02 0.01 0.01 0.01 0.01 0.01 0.01 0.01 0.01 0.00 0.00 0.00 0.00 0.00 0.00 0.00 0.00 0.00 0.00 0.00 0.00 0.00 0.00 0.00 0.00 0.00 0.00 0.00 0.00
0.06 0.06 0.07 0.07 0.08 0.07 0.06 0.04 0.03 0.03 0.02 0.01 0.01 0.01 0.01 0.02 0.02 0.01 0.01 0.02 0.02 0.01 0.01 0.01 0.01 0.01 0.00 0.00 0.00 0.00 0.00 0.00 0.00 0.00 0.00 0.00 0.00 0.00 0.00 0.00 0.00 0.00 0.00 0.00
0.06 0.06 0.06 0.07 0.08 0.06 0.06 0.06 0.05 0.04 0.02 0.01 0.00 0.00 0.00 0.01 0.01 0.01 0.01 0.01 0.01 0.01 0.01 0.01 0.01 0.00 0.00 0.01 0.01 0.00 0.00 0.00 0.00 0.00 0.00 0.00 0.00 0.00 0.00 0.00 0.00 0.00 0.00 0.00
MSLP
1005.53 1005.67 1005.77 1005.85 1005.93 1006.04 1006.19 1006.38 1006.61 1006.86 1007.10 1007.30 1007.44 1007.50 1007.49 1007.42 1007.30 1007.18 1007.08 1007.03 1007.07 1007.19 1007.40 1007.66 1007.97 1008.27 1008.54 1008.74 1008.85 1008.86 1008.77 1008.61 1008.40 1008.17 1007.96 1007.80 1007.72 1007.72 1007.83 1008.02 1008.29 1008.62 1009.00 1009.42
1005.36 1005.49 1005.54 1005.55 1005.54 1005.55 1005.62 1005.77 1006.00 1006.29 1006.63 1006.98 1007.29 1007.54 1007.70 1007.76 1007.74 1007.66 1007.56 1007.47 1007.43 1007.46 1007.58 1007.77 1008.03 1008.31 1008.57 1008.79 1008.94 1008.98 1008.94 1008.81 1008.62 1008.41 1008.21 1008.05 1007.97 1007.98 1008.08 1008.28 1008.55 1008.88 1009.27 1009.68
1005.15 1005.30 1005.36 1005.34 1005.28 1005.24 1005.25 1005.35 1005.56 1005.89 1006.29 1006.75 1007.19 1007.59 1007.89 1008.08 1008.16 1008.13 1008.04 1007.92 1007.82 1007.78 1007.81 1007.93 1008.12 1008.37 1008.62 1008.85 1009.02 1009.11 1009.10 1009.02 1008.88 1008.71 1008.55 1008.42 1008.37 1008.41 1008.54 1008.75 1009.04 1009.40 1009.79 1010.21
1004.89 1005.11 1005.21 1005.22 1005.16 1005.09 1005.07 1005.14 1005.33 1005.65 1006.09 1006.60 1007.13 1007.63 1008.05 1008.35 1008.51 1008.54 1008.47 1008.35 1008.21 1008.12 1008.08 1008.13 1008.26 1008.46 1008.69 1008.92 1009.11 1009.23 1009.28 1009.25 1009.17 1009.06 1008.96 1008.89 1008.89 1008.97 1009.14 1009.39 1009.72 1010.09 1010.51 1010.94
1004.62 1004.93 1005.11 1005.18 1005.16 1005.11 1005.08 1005.13 1005.29 1005.59 1006.02 1006.54 1007.11 1007.67 1008.16 1008.53 1008.76 1008.85 1008.83 1008.72 1008.57 1008.44 1008.36 1008.36 1008.44 1008.60 1008.80 1009.03 1009.23 1009.39 1009.49 1009.53 1009.52 1009.49 1009.46 1009.46 1009.52 1009.66 1009.87 1010.17 1010.52 1010.92 1011.35 1011.80
1004.40 1004.80 1005.08 1005.24 1005.29 1005.28 1005.26 1005.30 1005.43 1005.70 1006.09 1006.58 1007.15 1007.71 1008.23 1008.64 1008.92 1009.07 1009.08 1009.00 1008.87 1008.74 1008.64 1008.61 1008.67 1008.80 1008.98 1009.21 1009.43 1009.63 1009.78 1009.90 1009.97 1010.02 1010.07 1010.15 1010.28 1010.47 1010.73 1011.05 1011.42 1011.83 1012.27 1012.71
1004.28 1004.76 1005.14 1005.40 1005.53 1005.58 1005.60 1005.64 1005.75 1005.97 1006.30 1006.74 1007.26 1007.79 1008.29 1008.71 1009.02 1009.20 1009.26 1009.22 1009.12 1009.01 1008.92 1008.89 1008.94 1009.07 1009.26 1009.50 1009.75 1010.00 1010.22 1010.40 1010.56 1010.69 1010.83 1010.98 1011.17 1011.40 1011.69 1012.03 1012.41 1012.81 1013.23 1013.65
1004.33 1004.87 1005.33 1005.67 1005.89 1006.01 1006.07 1006.13 1006.23 1006.41 1006.68 1007.05 1007.49 1007.96 1008.42 1008.82 1009.13 1009.33 1009.42 1009.42 1009.36 1009.29 1009.24 1009.24 1009.30 1009.45 1009.67 1009.94 1010.23 1010.53 1010.82 1011.08 1011.32 1011.53 1011.74 1011.96 1012.19 1012.46 1012.77 1013.10 1013.46 1013.84 1014.22 1014.60
1004.58 1005.14 1005.65 1006.06 1006.37 1006.56 1006.68 1006.77 1006.87 1007.02 1007.24 1007.53 1007.89 1008.29 1008.68 1009.03 1009.32 1009.52 1009.63 1009.67 1009.66 1009.64 1009.63 1009.68 1009.79 1009.97 1010.23 1010.54 1010.88 1011.24 1011.59 1011.92 1012.23 1012.51 1012.78 1013.04 1013.31 1013.60 1013.90 1014.22 1014.55 1014.89 1015.22 1015.55
1005.01 1005.57 1006.10 1006.57 1006.94 1007.20 1007.39 1007.53 1007.65 1007.79 1007.97 1008.21 1008.49 1008.81 1009.13 1009.43 1009.68 1009.86 1009.99 1010.06 1010.09 1010.12 1010.17 1010.27 1010.43 1010.66 1010.95 1011.30 1011.69 1012.09 1012.49 1012.87 1013.23 1013.56 1013.87 1014.16 1014.45 1014.74 1015.03 1015.33 1015.63 1015.93 1016.21 1016.48
1005.58 1006.11 1006.65 1007.15 1007.57 1007.92 1008.18 1008.38 1008.55 1008.71 1008.88 1009.08 1009.31 1009.56 1009.81 1010.05 1010.26 1010.43 1010.55 1010.64 1010.72 1010.79 1010.89 1011.04 1011.24 1011.51 1011.83 1012.21 1012.62 1013.04 1013.46 1013.86 1014.24 1014.59 1014.91 1015.22 1015.51 1015.79 1016.08 1016.36 1016.63 1016.90 1017.15 1017.38
1006.22 1006.71 1007.24 1007.77 1008.25 1008.66 1009.00 1009.29 1009.52 1009.72 1009.91 1010.11 1010.31 1010.51 1010.72 1010.91 1011.08 1011.23 1011.36 1011.46 1011.56 1011.67 1011.81 1011.99 1012.22 1012.50 1012.83 1013.21 1013.60 1014.01 1014.40 1014.79 1015.15 1015.49 1015.80 1016.10 1016.39 1016.67 1016.95 1017.23 1017.50 1017.76 1018.00 1018.22
1006.86 1007.32 1007.84 1008.39 1008.92 1009.40 1009.83 1010.20 1010.51 1010.78 1011.01 1011.22 1011.42 1011.61 1011.78 1011.95 1012.10 1012.24 1012.36 1012.48 1012.60 1012.73 1012.89 1013.09 1013.32 1013.59 1013.90 1014.23 1014.57 1014.92 1015.26 1015.59 1015.90 1016.20 1016.48 1016.76 1017.04 1017.33 1017.62 1017.91 1018.20 1018.49 1018.75 1018.99
1007.44 1007.89 1008.42 1008.99 1009.56 1010.11 1010.62 1011.07 1011.47 1011.81 1012.10 1012.35 1012.56 1012.75 1012.93 1013.08 1013.22 1013.36 1013.48 1013.61 1013.75 1013.90 1014.06 1014.25 1014.47 1014.70 1014.95 1015.21 1015.48 1015.74 1015.99 1016.23 1016.47 1016.70 1016.94 1017.19 1017.47 1017.76 1018.07 1018.40 1018.74 1019.07 1019.38 1019.66
1007.97 1008.43 1008.97 1009.56 1010.18 1010.79 1011.36 1011.89 1012.35 1012.76 1013.11 1013.40 1013.64 1013.85 1014.03 1014.19 1014.34 1014.48 1014.62 1014.76 1014.91 1015.07 1015.23 1015.41 1015.59 1015.77 1015.94 1016.11 1016.28 1016.43 1016.57 1016.72 1016.87 1017.04 1017.23 1017.46 1017.73 1018.04 1018.39 1018.77 1019.16 1019.55 1019.92 1020.26
1008.45 1008.94 1009.51 1010.13 1010.77 1011.42 1012.04 1012.62 1013.14 1013.60 1013.99 1014.32 1014.59 1014.82 1015.02 1015.19 1015.36 1015.52 1015.67 1015.83 1015.99 1016.15 1016.31 1016.46 1016.60 1016.73 1016.83 1016.91 1016.97 1017.02 1017.06 1017.11 1017.19 1017.29 1017.45 1017.66 1017.94 1018.27 1018.66 1019.08 1019.53 1019.98 1020.41 1020.81
1008.93 1009.46 1010.06 1010.70 1011.37 1012.04 1012.68 1013.28 1013.82 1014.30 1014.72 1015.07 1015.36 1015.61 1015.83 1016.02 1016.20 1016.38 1016.56 1016.74 1016.91 1017.08 1017.23 1017.37 1017.48 1017.55 1017.59 1017.60 1017.58 1017.55 1017.51 1017.49 1017.51 1017.58 1017.71 1017.92 1018.21 1018.57 1018.99 1019.45 1019.94 1020.44 1020.91 1021.33
1009.42 1010.00 1010.63 1011.29 1011.97 1012.64 1013.27 1013.87 1014.41 1014.89 1015.31 1015.66 1015.96 1016.22 1016.45 1016.66 1016.86 1017.06 1017.26 1017.45 1017.65 1017.83 1017.98 1018.11 1018.20 1018.24 1018.24 1018.21 1018.14 1018.06 1017.99 1017.94 1017.94 1017.99 1018.13 1018.35 1018.65 1019.03 1019.47 1019.95 1020.46 1020.96 1021.44 1021.87
1009.96 1010.59 1011.24 1011.91 1012.58 1013.23 1013.84 1014.42 1014.93 1015.39 1015.79 1016.13 1016.43 1016.69 1016.92 1017.15 1017.36 1017.58 1017.80 1018.01 1018.22 1018.41 1018.58 1018.71 1018.79 1018.83 1018.83 1018.78 1018.71 1018.63 1018.56 1018.52 1018.52 1018.60 1018.76 1019.00 1019.31 1019.71 1020.15 1020.63 1021.12 1021.60 1022.04 1022.44
1010.51 1011.18 1011.86 1012.53 1013.18 1013.80 1014.39 1014.92 1015.41 1015.84 1016.21 1016.54 1016.83 1017.09 1017.33 1017.56 1017.79 1018.02 1018.26 1018.49 1018.71 1018.91 1019.09 1019.23 1019.33 1019.38 1019.39 1019.36 1019.32 1019.27 1019.23 1019.23 1019.28 1019.40 1019.59 1019.85 1020.18 1020.57 1021.00 1021.45 1021.90 1022.32 1022.70 1023.03
1011.06 1011.76 1012.45 1013.11 1013.75 1014.34 1014.89 1015.40 1015.85 1016.26 1016.62 1016.94 1017.23 1017.49 1017.74 1017.99 1018.23 1018.48 1018.72 1018.96 1019.19 1019.40 1019.59 1019.74 1019.85 1019.93 1019.97 1019.98 1019.98 1019.98 1020.00 1020.06 1020.16 1020.33 1020.55 1020.84 1021.18 1021.56 1021.96 1022.35 1022.73 1023.08 1023.37 1023.62
1011.56 1012.29 1012.98 1013.64 1014.26 1014.83 1015.36 1015.84 1016.28 1016.68 1017.04 1017.37 1017.67 1017.95 1018.22 1018.48 1018.74 1019.00 1019.25 1019.49 1019.72 1019.94 1020.13 1020.28 1020.41 1020.51 1020.58 1020.63 1020.68 1020.74 1020.82 1020.94 1021.10 1021.30 1021.56 1021.86 1022.20 1022.55 1022.91 1023.25 1023.55 1023.82 1024.02 1024.18
1012.02 1012.75 1013.45 1014.10 1014.70 1015.26 1015.78 1016.26 1016.70 1017.11 1017.49 1017.84 1018.17 1018.48 1018.78 1019.07 1019.35 1019.62 1019.87 1020.12 1020.34 1020.55 1020.73 1020.89 1021.02 1021.13 1021.22 1021.31 1021.40 1021.50 1021.63 1021.79 1021.99 1022.23 1022.51 1022.81 1023.13 1023.46 1023.76 1024.05 1024.28 1024.47 1024.61 1024.70
1012.44 1013.17 1013.86 1014.50 1015.10 1015.65 1016.17 1016.65 1017.11 1017.54 1017.96 1018.35 1018.72 1019.07 1019.41 1019.73 1020.03 1020.31 1020.57 1020.81 1021.02 1021.21 1021.38 1021.52 1021.65 1021.76 1021.86 1021.97 1022.08 1022.21 1022.37 1022.56 1022.78 1023.03 1023.30 1023.60 1023.90 1024.19 1024.46 1024.69 1024.88 1025.02 1025.11 1025.15
1012.87 1013.60 1014.27 1014.90 1015.48 1016.03 1016.55 1017.05 1017.52 1017.99 1018.44 1018.87 1019.29 1019.69 1020.06 1020.41 1020.73 1021.02 1021.28 1021.51 1021.71 1021.88 1022.03 1022.16 1022.27 1022.37 1022.47 1022.58 1022.70 1022.84 1023.00 1023.20 1023.42 1023.66 1023.92 1024.20 1024.47 1024.73 1024.96 1025.16 1025.32 1025.44 1025.51 1025.54
1013.40 1014.10 1014.75 1015.35 1015.91 1016.44 1016.96 1017.46 1017.95 1018.44 1018.92 1019.39 1019.85 1020.28 1020.68 1021.05 1021.39 1021.68 1021.94 1022.16 1022.34 1022.49 1022.62 1022.73 1022.82 1022.92 1023.01 1023.11 1023.23 1023.36 1023.52 1023.70 1023.91 1024.14 1024.37 1024.62 1024.87 1025.10 1025.31 1025.49 1025.64 1025.75 1025.83 1025.87
1014.06 1014.72 1015.33 1015.89 1016.42 1016.93 1017.42 1017.92 1018.41 1018.91 1019.40 1019.89 1020.36 1020.81 1021.23 1021.61 1021.94 1022.23 1022.48 1022.68 1022.85 1022.99 1023.10 1023.20 1023.29 1023.37 1023.46 1023.56 1023.67 1023.80 1023.95 1024.11 1024.30 1024.50 1024.71 1024.93 1025.15 1025.36 1025.55 1025.73 1025.88 1026.00 1026.09 1026.16
Thickness
5760 5767 5767 5763 5762 5763 5763 5766 5763 5767 5770 5770 5769 5767 5765 5764 5762 5759 5757 5756 5755 5754 5752 5751 5750 5749 5749 5748 5747 5746 5744 5741 5739 5738 5737 5735 5733 5732 5731 5730 5729 5727 5725 5725
5746 5756 5758 5757 5762 5763 5763 5766 5768 5769 5765 5769 5767 5764 5758 5756 5755 5752 5751 5750 5749 5748 5746 5745 5745 5745 5744 5744 5743 5742 5739 5738 5737 5735 5733 5731 5729 5728 5726 5725 5724 5723 5721 5720
5738 5747 5746 5741 5757 5760 5761 5766 5766 5761 5762 5760 5755 5752 5749 5748 5748 5747 5746 5745 5744 5743 5742 5741 5741 5741 5740 5740 5739 5737 5735 5734 5733 5731 5728 5726 5725 5724 5722 5720 5719 5718 5716 5715
5739 5731 5718 5750 5764 5765 5760 5760 5764 5762 5758 5755 5750 5747 5745 5745 5742 5740 5740 5740 5740 5739 5738 5739 5739 5739 5738 5737 5735 5732 5730 5729 5727 5725 5723 5722 5720 5718 5717 5715 5713 5711 5709 5707
5732 5725 5732 5740 5751 5754 5750 5748 5757 5755 5750 5747 5743 5738 5734 5736 5737 5735 5734 5734 5734 5735 5735 5734 5733 5733 5733 5731 5729 5726 5723 5722 5721 5719 5718 5716 5714 5712 5711 5708 5705 5703 5701 5698
5724 5720 5718 5738 5750 5755 5748 5736 5748 5748 5742 5739 5737 5735 5728 5727 5727 5727 5727 5727 5727 5728 5727 5726 5726 5727 5725 5723 5721 5718 5717 5716 5715 5713 5711 5709 5706 5704 5703 5700 5697 5695 5691 5689
5717 5717 5731 5736 5744 5743 5725 5732 5741 5741 5738 5735 5735 5734 5726 5722 5720 5719 5719 5720 5721 5720 5718 5717 5718 5718 5716 5714 5711 5711 5711 5709 5708 5706 5704 5701 5698 5696 5694 5691 5688 5686 5682 5680
5712 5710 5715 5727 5732 5729 5727 5734 5735 5732 5730 5727 5722 5720 5716 5714 5711 5711 5711 5712 5713 5711 5709 5709 5709 5710 5707 5704 5704 5704 5702 5701 5699 5697 5696 5692 5689 5687 5685 5683 5680 5677 5674 5671
5712 5709 5711 5719 5721 5721 5725 5724 5724 5723 5720 5716 5712 5708 5706 5704 5703 5703 5703 5703 5704 5702 5700 5700 5700 5700 5698 5695 5695 5694 5692 5690 5688 5687 5685 5683 5681 5679 5677 5675 5674 5670 5667 5664
5697 5699 5702 5706 5710 5713 5715 5715 5715 5713 5710 5708 5703 5700 5698 5696 5694 5694 5694 5694 5694 5692 5691 5690 5690 5690 5689 5688 5687 5685 5682 5679 5677 5675 5673 5670 5670 5669 5668 5666 5664 5661 5658 5655
5686 5688 5692 5696 5699 5702 5704 5705 5704 5703 5702 5699 5695 5691 5689 5687 5686 5684 5684 5683 5683 5682 5681 5680 5680 5680 5679 5679 5678 5675 5672 5670 5667 5665 5661 5657 5653 5649 5650 5645 5647 5650 5648 5646
5682 5686 5689 5687 5690 5693 5692 5692 5693 5691 5689 5689 5687 5683 5681 5679 5677 5676 5674 5673 5672 5672 5671 5670 5669 5669 5668 5669 5669 5666 5663 5661 5659 5656 5652 5648 5643 5636 5629 5630 5628 5629 5628 5628
5676 5680 5681 5680 5681 5683 5684 5683 5683 5681 5679 5678 5676 5674 5672 5669 5667 5666 5664 5663 5662 5661 5661 5660 5659 5658 5658 5658 5658 5657 5654 5652 5650 5647 5644 5640 5637 5634 5628 5618 5614 5613 5612 5611
5666 5668 5667 5670 5670 5672 5673 5672 5671 5670 5669 5667 5665 5663 5662 5659 5657 5655 5654 5653 5652 5652 5651 5650 5649 5648 5648 5648 5648 5647 5645 5642 5641 5638 5636 5633 5630 5628 5625 5621 5616 5607 5600 5597
5656 5661 5661 5661 5661 5661 5660 5661 5659 5657 5655 5654 5653 5652 5650 5648 5646 5644 5644 5644 5643 5642 5641 5640 5639 5637 5638 5638 5637 5636 5636 5634 5632 5630 5628 5625 5623 5620 5617 5613 5609 5604 5598 5591
5646 5650 5651 5651 5650 5649 5650 5650 5649 5646 5644 5642 5641 5640 5638 5636 5634 5633 5633 5633 5633 5631 5630 5629 5628 5627 5627 5628 5627 5626 5624 5621 5622 5622 5620 5617 5614 5612 5608 5605 5601 5598 5593 5588
5637 5638 5640 5641 5641 5640 5640 5639 5638 5636 5634 5632 5631 5630 5629 5626 5624 5622 5622 5622 5621 5620 5619 5619 5618 5617 5617 5618 5620 5619 5616 5613 5611 5613 5610 5607 5605 5602 5599 5595 5591 5586 5581 5573
5636 5636 5637 5636 5634 5632 5630 5629 5628 5627 5625 5624 5624 5622 5619 5617 5614 5613 5612 5612 5611 5609 5609 5609 5609 5609 5609 5609 5610 5610 5608 5606 5604 5601 5598 5595 5593 5591 5587 5583 5579 5575 5570 5565
5629 5629 5628 5627 5626 5624 5622 5620 5618 5618 5617 5616 5614 5611 5609 5607 5605 5604 5604 5603 5602 5600 5598 5598 5597 5601 5600 5598 5599 5599 5599 5596 5593 5589 5587 5581 5582 5579 5576 5572 5568 5565 5561 5556
5621 5621 5621 5620 5618 5616 5614 5611 5610 5609 5609 5608 5606 5603 5601 5599 5597 5596 5595 5594 5593 5591 5590 5589 5591 5591 5590 5589 5590 5591 5590 5587 5584 5580 5577 5574 5571 5568 5564 5560 5556 5553 5549 5544
5614 5613 5612 5611 5610 5608 5606 5606 5604 5603 5602 5601 5599 5595 5593 5591 5591 5590 5590 5586 5581 5581 5581 5580 5582 5582 5582 5580 5581 5582 5579 5577 5574 5570 5567 5564 5560 5556 5552 5549 5545 5540 5537 5532
5607 5607 5606 5604 5603 5601 5600 5599 5598 5595 5594 5592 5590 5588 5585 5583 5583 5582 5580 5578 5574 5571 5576 5575 5573 5570 5571 5572 5574 5572 5569 5566 5563 5559 5556 5552 5549 5545 5540 5536 5532 5528 5524 5519
5601 5601 5600 5599 5597 5595 5593 5592 5590 5588 5586 5585 5583 5582 5581 5580 5579 5577 5573 5569 5568 5565 5567 5564 5559 5558 5559 5564 5563 5560 5557 5554 5552 5548 5544 5539 5536 5532 5528 5524 5519 5515 5511 5506
5594 5594 5593 5592 5591 5589 5586 5584 5582 5580 5579 5577 5576 5575 5574 5573 5571 5569 5564 5557 5557 5557 5556 5549 5548 5549 5551 5555 5552 5549 5546 5543 5540 5537 5533 5528 5524 5519 5515 5511 5507 5503 5499 5494
5587 5587 5586 5585 5583 5581 5579 5577 5575 5573 5573 5571 5569 5568 5568 5567 5564 5561 5557 5552 5548 5550 5547 5541 5540 5540 5544 5544 5541 5538 5534 5531 5528 5524 5520 5516 5513 5508 5503 5499 5496 5492 5488 5484
5581 5581 5579 5579 5578 5576 5575 5574 5573 5570 5568 5566 5563 5562 5560 5558 5555 5553 5550 5547 5544 5541 5542 5538 5536 5534 5535 5533 5529 5526 5522 5518 5515 5511 5508 5504 5500 5497 5492 5488 5484 5481 5477 5473
5574 5574 5573 5572 5571 5572 5571 5570 5567 5565 5564 5561 5558 5556 5554 5552 5549 5547 5544 5541 5538 5536 5534 5531 5529 5526 5524 5521 5518 5514 5511 5507 5504 5500 5497 5493 5489 5486 5482 5477 5474 5471 5467 5464